Location: Unspecified
(41.4057°N, 2.1753°E)
Time: 14:48:19
(UTC+01:00)

ISS - Visible Passes

Search period start: 23 February 2017 00:00
Search period end: 05 March 2017 00:00
Orbit: 399 x 408 km, 51.6° (Epoch: 23 February)

Date Brightness Start Highest point End Pass type
(mag) Time Alt. Az. Time Alt. Az. Time Alt. Az.
28 Feb -0.4 06:45:45 10° S 06:48:05 18° SE 06:50:26 10° E visible
02 Mar -2.1 06:36:01 10° SSW 06:39:09 42° SE 06:42:18 10° ENE visible
03 Mar -1.1 05:44:47 14° S 05:46:41 22° SE 05:49:19 10° E visible
04 Mar -0.2 04:54:49 11° ESE 04:54:49 11° ESE 04:55:32 10° ESE visible
04 Mar -3.4 06:27:29 13° WSW 06:30:18 80° NW 06:33:37 10° NE visible
